TimeCDT,TemperatureF,Dew PointF,Humidity,Sea Level PressureIn,VisibilityMPH,Wind Direction,Wind SpeedMPH,Gust SpeedMPH,PrecipitationIn,Events,Conditions,WindDirDegrees,DateUTC
12:55 AM,32.5,20.8,62,30.08,10.0,Calm,Calm,-,N/A,,Overcast,0,2013-03-23 05:55:00
1:55 AM,32.4,22.6,67,30.07,10.0,NE,5.8,-,N/A,,Overcast,40,2013-03-23 06:55:00
2:55 AM,31.5,25.2,78,30.09,10.0,NE,5.8,-,N/A,,Overcast,40,2013-03-23 07:55:00
3:55 AM,31.1,25.5,80,30.07,10.0,ENE,6.9,-,N/A,,Overcast,60,2013-03-23 08:55:00
4:55 AM,31.1,25.5,80,30.07,10.0,NE,6.9,-,N/A,,Overcast,50,2013-03-23 09:55:00
5:55 AM,31.3,26.4,82,30.09,10.0,NNE,4.6,-,N/A,,Overcast,30,2013-03-23 10:55:00
6:55 AM,31.1,27.0,85,30.10,10.0,Calm,Calm,-,N/A,,Overcast,0,2013-03-23 11:55:00
7:55 AM,30.6,27.0,86,30.10,10.0,NE,8.1,-,N/A,,Mostly Cloudy,40,2013-03-23 12:55:00
8:55 AM,31.3,26.2,82,30.11,10.0,NE,6.9,-,N/A,,Scattered Clouds,40,2013-03-23 13:55:00
9:55 AM,33.3,26.1,75,30.14,10.0,North,4.6,-,N/A,,Mostly Cloudy,10,2013-03-23 14:55:00
10:55 AM,33.8,25.0,70,30.14,10.0,NE,4.6,-,N/A,,Overcast,50,2013-03-23 15:55:00
11:55 AM,36.7,23.4,59,30.14,10.0,NE,10.4,-,N/A,,Overcast,40,2013-03-23 16:55:00
12:55 PM,37.2,22.6,56,30.10,10.0,NNE,12.7,-,N/A,,Overcast,30,2013-03-23 17:55:00
1:55 PM,37.9,22.3,53,30.08,10.0,ENE,11.5,-,N/A,,Scattered Clouds,60,2013-03-23 18:55:00
2:27 PM,37.4,23.0,56,30.07,10.0,NNE,8.1,-,N/A,,Partly Cloudy,20,2013-03-23 19:27:00
2:32 PM,37.4,23.0,56,30.06,10.0,North,11.5,-,N/A,,Scattered Clouds,10,2013-03-23 19:32:00
2:43 PM,39.2,24.8,56,30.06,10.0,NNE,8.1,17.3,N/A,,Mostly Cloudy,20,2013-03-23 19:43:00
2:55 PM,37.4,24.4,60,30.06,10.0,NE,10.4,-,0.00,Rain,Light Rain,40,2013-03-23 19:55:00
3:55 PM,35.1,28.0,76,30.06,6.0,NNE,8.1,-,0.00,Snow,Light Snow,30,2013-03-23 20:55:00
4:06 PM,35.6,28.4,75,30.06,3.0,NNE,8.1,-,N/A,Snow,Light Snow,20,2013-03-23 21:06:00
4:11 PM,33.8,30.2,87,30.06,2.5,NNE,10.4,-,N/A,Snow,Light Snow,20,2013-03-23 21:11:00
4:15 PM,33.8,30.2,87,30.06,1.8,NNE,8.1,-,N/A,Snow,Light Snow,20,2013-03-23 21:15:00
4:16 PM,33.8,30.2,87,30.06,1.8,NNE,8.1,-,N/A,Snow,Light Snow,20,2013-03-23 21:16:00
4:21 PM,33.8,30.2,87,30.07,1.8,NNE,8.1,-,N/A,Snow,Light Snow,20,2013-03-23 21:21:00
4:38 PM,32.0,32.0,100,30.07,1.8,NNE,9.2,-,N/A,Snow,Light Snow,30,2013-03-23 21:38:00
4:39 PM,32.0,32.0,100,30.07,2.0,NNE,8.1,-,N/A,Snow,Light Snow,20,2013-03-23 21:39:00
4:47 PM,32.0,32.0,100,30.07,2.5,North,8.1,-,N/A,Snow,Light Snow,10,2013-03-23 21:47:00
4:54 PM,32.0,32.0,100,30.07,2.5,North,9.2,-,N/A,Snow,Light Snow,10,2013-03-23 21:54:00
4:55 PM,32.5,32.4,99,30.07,2.5,North,9.2,-,0.00,Snow,Light Snow,360,2013-03-23 21:55:00
4:56 PM,32.0,32.0,100,30.07,3.0,North,9.2,-,N/A,Snow,Light Snow,360,2013-03-23 21:56:00
4:58 PM,32.0,32.0,100,30.07,2.5,North,10.4,-,N/A,Snow,Light Snow,10,2013-03-23 21:58:00
5:03 PM,32.0,32.0,100,30.07,2.0,North,9.2,-,N/A,Snow,Light Snow,10,2013-03-23 22:03:00
5:07 PM,32.0,32.0,100,30.07,1.8,NNE,8.1,-,N/A,Snow,Light Snow,20,2013-03-23 22:07:00
5:10 PM,32.0,32.0,100,30.07,2.0,NNE,9.2,-,N/A,Snow,Light Snow,20,2013-03-23 22:10:00
5:25 PM,32.0,32.0,100,30.07,2.0,NNE,10.4,-,N/A,Snow,Light Snow,30,2013-03-23 22:25:00
5:35 PM,32.0,32.0,100,30.08,2.5,NNE,11.5,-,N/A,Snow,Light Snow,20,2013-03-23 22:35:00
5:51 PM,32.0,32.0,100,30.07,2.0,NNE,9.2,-,N/A,Snow,Light Snow,30,2013-03-23 22:51:00
5:55 PM,31.5,31.3,99,30.07,2.0,NNE,9.2,-,0.00,Snow,Light Snow,20,2013-03-23 22:55:00
6:04 PM,32.0,32.0,100,30.07,2.5,North,10.4,-,N/A,Snow,Light Snow,10,2013-03-23 23:04:00
6:17 PM,32.0,30.2,93,30.08,1.8,NNE,10.4,19.6,N/A,Snow,Light Snow,20,2013-03-23 23:17:00
6:22 PM,32.0,30.2,93,30.08,2.0,North,12.7,-,N/A,Snow,Light Snow,10,2013-03-23 23:22:00
6:30 PM,32.0,30.2,93,30.08,3.0,North,10.4,20.7,N/A,Snow,Light Snow,10,2013-03-23 23:30:00
6:36 PM,32.0,30.2,93,30.08,3.0,North,8.1,-,N/A,Snow,Light Snow,10,2013-03-23 23:36:00
6:39 PM,32.0,30.2,93,30.08,4.0,North,9.2,-,N/A,Snow,Light Snow,10,2013-03-23 23:39:00
6:45 PM,32.0,30.2,93,30.08,4.0,NNE,9.2,-,N/A,Snow,Light Snow,20,2013-03-23 23:45:00
6:55 PM,31.3,31.1,99,30.08,5.0,North,9.2,-,0.00,,Overcast,10,2013-03-23 23:55:00
6:57 PM,32.0,30.2,93,30.08,5.0,North,11.5,-,N/A,,Overcast,350,2013-03-23 23:57:00
7:10 PM,32.0,30.2,93,30.09,4.0,North,10.4,-,N/A,Snow,Light Snow,350,2013-03-24 00:10:00
7:23 PM,30.2,30.2,100,30.10,4.0,North,10.4,-,N/A,Snow,Light Snow,10,2013-03-24 00:23:00
7:30 PM,30.2,30.2,100,30.10,2.5,NNE,10.4,-,N/A,Snow,Light Snow,20,2013-03-24 00:30:00
7:32 PM,30.2,30.2,100,30.10,2.5,NNE,10.4,-,N/A,Snow,Light Snow,20,2013-03-24 00:32:00
7:40 PM,30.2,30.2,100,30.10,3.0,North,9.2,-,N/A,Snow,Light Snow,10,2013-03-24 00:40:00
7:41 PM,30.2,30.2,100,30.10,2.5,NNE,8.1,-,N/A,Snow,Light Snow,20,2013-03-24 00:41:00
7:45 PM,30.2,30.2,100,30.11,2.5,North,10.4,-,N/A,Snow,Light Snow,10,2013-03-24 00:45:00
7:49 PM,30.2,30.2,100,30.11,1.8,North,8.1,-,N/A,Snow,Light Snow,10,2013-03-24 00:49:00
7:50 PM,30.2,30.2,100,30.11,2.0,North,8.1,-,N/A,Snow,Light Snow,10,2013-03-24 00:50:00
7:55 PM,30.6,30.4,99,30.11,2.5,North,10.4,-,0.00,Snow,Light Snow,10,2013-03-24 00:55:00
7:57 PM,30.2,30.2,100,30.11,3.0,North,9.2,-,N/A,Snow,Light Snow,360,2013-03-24 00:57:00
8:07 PM,30.2,30.2,100,30.12,4.0,North,6.9,-,N/A,Snow,Light Snow,360,2013-03-24 01:07:00
8:17 PM,30.2,30.2,100,30.12,4.0,North,8.1,-,N/A,Snow,Light Snow,350,2013-03-24 01:17:00
8:25 PM,30.2,30.2,100,30.12,4.0,North,8.1,-,N/A,Snow,Light Snow,350,2013-03-24 01:25:00
8:55 PM,30.0,29.7,99,30.11,5.0,North,9.2,-,0.00,Snow,Light Snow,360,2013-03-24 01:55:00
9:31 PM,30.2,30.2,100,30.10,9.0,North,10.4,-,N/A,Snow,Light Snow,10,2013-03-24 02:31:00
9:55 PM,29.5,28.8,97,30.09,5.0,North,12.7,-,0.00,Snow,Light Snow,10,2013-03-24 02:55:00
10:55 PM,28.9,27.0,92,30.10,10.0,North,8.1,-,N/A,,Mostly Cloudy,350,2013-03-24 03:55:00
11:55 PM,29.7,26.2,87,30.10,10.0,North,8.1,-,N/A,,Overcast,350,2013-03-24 04:55:00